Simultaneous Nadir Overpasses (SNOs) Predictions

Prediction of SNOs between LANDSAT-8 and METOP-B Satellite Orbit:

Table of predicted SNOs for the next 14.0 days since TLE Epoch: 5/7/2018
Index Date (LANDSAT-8) Time (LANDSAT-8) Lat,Lon (LANDSAT-8) SZA (LANDSAT-8 ) Date (METOP-B) Time (METOP-B) Lat,Lon (METOP-B) SZA (METOP-B ) Distance(km) Time Diff (sec)
1 05/08/2018 13:35:08 -81.15,-164.17 113.83 05/08/2018 13:34:16 -81.15,-164.17 113.86 0.51 52
2 05/08/2018 14:24:34 81.16, 3.58 66.18 05/08/2018 14:24:55 81.16, 3.65 66.20 1.31 21
3 05/11/2018 09:09:22 -81.14, -97.94 114.60 05/11/2018 09:08:37 -81.15, -97.81 114.60 2.49 45
4 05/11/2018 09:58:47 81.17, 70.14 65.46 05/11/2018 09:59:16 81.16, 69.98 65.45 2.86 29
5 05/14/2018 04:43:35 -81.15, -31.39 115.28 05/14/2018 04:42:58 -81.14, -31.46 115.30 1.16 37
6 05/14/2018 05:33:00 81.17, 136.67 64.78 05/14/2018 05:33:36 81.17, 136.67 64.80 0.19 36
7 05/17/2018 00:17:48 -81.15, 35.13 115.92 05/17/2018 00:17:18 -81.16, 35.26 115.92 2.19 30
8 05/17/2018 01:07:12 81.18,-156.84 64.13 05/17/2018 01:07:56 81.17,-157.02 64.13 3.26 44
9 05/19/2018 19:52:00 -81.16, 101.62 116.53 05/19/2018 19:51:38 -81.15, 101.58 116.55 0.71 22




NCC Satellite Simultaneous Nadir Overpasses (SNOs) Prediction Service
